Tracking 35280 objects as of 7-Sep-2026
HD Live streaming from Space Station
objects crossing your sky now

XM-2

Track XM-2 now!
XM-2 is classified as:


NORAD ID: 26724
Int'l Code: 2001-012A
Launch date: March 18, 2001
Source: United States (US)
Launch site: SEA LAUNCH (SEAL)

100 channels of digital music uplinked in the X-band from one or more ground stations.
Your satellite tracking list
Your tracking list is empty




NASA's NSSDC Master Catalog

Two Line Element Set (TLE):
1 26724U 01012A   26249.39960137 -.00000169  00000-0  00000-0 0  9993
2 26724   9.7732  55.6618 0009182 123.9862  59.2821  0.99081547 43044
Source of the keplerian elements: AFSPC